EW3148 Weather Reports


time (UTC)temp
F
wind
direction
speed
knots
gust
knots
rain 1hr
in
rain 24hr
in
rain mn
in
humidity
%
barometer
mb
20260504040352 67 149 3.5 8.7 0.00 0.00 0.00 60 1015.6
20260504035406 67 180 2.6 12.2 0.00 0.00 0.00 59 1015.7
20260504034355 67 211 2.6 12.2 0.00 0.00 0.00 57 1015.7
20260504033416 67 165 1.7 7.0 0.00 0.00 0.00 56 1015.6
20260504032346 68 184 2.6 7.0 0.00 0.00 0.00 54 1015.5
20260504030240 68 186 1.7 3.5 0.00 0.00 0.00 53 1015.5
20260504025250 68 169 0.9 4.3 0.00 0.00 0.00 53 1015.5
20260504024303 69 200 0.9 4.3 0.00 0.00 0.00 52 1015.5
20260504023313 69 174 1.7 4.3 0.00 0.00 0.00 52 1015.4
20260504022249 69 172 0.9 3.5 0.00 0.00 0.00 52 1015.5
20260504021217 69 197 0.9 4.3 0.00 0.00 0.00 51 1015.4
20260504020154 70 176 1.7 4.3 0.00 0.00 0.00 50 1015.4
20260504015157 70 177 0.9 4.3 0.00 0.00 0.00 49 1015.3
20260504013021 71 183 1.7 4.3 0.00 0.00 0.00 48 1014.9
20260504011950 72 174 1.7 4.3 0.00 0.00 0.00 46 1014.8
20260504005834 73 171 1.7 6.1 0.00 0.00 0.00 44 1014.8
20260504004845 74 182 1.7 7.0 0.00 0.00 0.00 43 1014.8
20260504002647 75 156 2.6 7.8 0.00 0.00 0.00 41 1015.0
20260504001650 75 175 2.6 9.6 0.00 0.00 0.00 40 1015.1
20260504000715 76 158 3.5 9.6 0.00 0.00 0.00 39 1015.2
20260503234641 77 182 3.5 11.3 0.00 0.00 0.00 38 1015.5
20260503233620 77 180 3.5 10.4 0.00 0.00 0.00 38 1015.6
20260503232559 78 118 3.5 10.4 0.00 0.00 0.00 37 1015.4
20260503231538 77 183 2.6 9.6 0.00 0.00 0.00 40 1015.6
20260503230536 77 148 4.3 13.9 0.00 0.00 0.00 38 1015.4
20260503225528 77 251 3.5 13.9 0.00 0.00 0.00 39 1015.4
20260503224523 77 169 3.5 9.6 0.00 0.00 0.00 40 1015.5
20260503222403 80 155 2.6 13.0 0.00 0.00 0.00 36 1015.9
20260503220224 80 135 2.6 8.7 0.00 0.00 0.00 36 1016.2
20260503215205 80 238 3.5 11.3 0.00 0.00 0.00 36 1016.4
20260503214142 80 179 3.5 13.9 0.00 0.00 0.00 35 1016.5
20260503213201 80 175 3.5 13.9 0.00 0.00 0.00 34 1016.6
20260503212211 80 188 2.6 15.6 0.00 0.00 0.00 36 1016.8
20260503211141 80 212 4.3 15.6 0.00 0.00 0.00 35 1017.1
20260503210146 80 211 3.5 12.2 0.00 0.00 0.00 35 1017.2
20260503205200 79 141 3.5 12.2 0.00 0.00 0.00 33 1017.6
20260503202952 80 174 3.5 11.3 0.00 0.00 0.00 34 1017.9
20260503202000 79 161 3.5 12.2 0.00 0.00 0.00 34 1018.2
20260503200948 79 153 4.3 12.2 0.00 0.00 0.00 35 1018.1
20260503195928 79 118 3.5 13.9 0.00 0.00 0.00 33 1018.3
20260503194854 79 202 5.2 13.9 0.00 0.00 0.00 35 1018.6
20260503193917 79 203 3.5 10.4 0.00 0.00 0.00 33 1018.6
20260503192845 79 187 4.3 10.4 0.00 0.00 0.00 31 1018.8
20260503191825 79 134 3.5 12.2 0.00 0.00 0.00 31 1018.9
20260503190758 79 208 3.5 12.2 0.00 0.00 0.00 31 1018.9
20260503185751 79 218 2.6 10.4 0.00 0.00 0.00 35 1019.1
20260503184716 79 226 1.7 11.3 0.00 0.00 0.00 37 1019.3
20260503182620 78 142 3.5 9.6 0.00 0.00 0.00 36 1019.6
20260503181558 79 280 2.6 6.1 0.00 0.00 0.00 36 1019.8
20260503180529 79 145 2.6 8.7 0.00 0.00 0.00 33 1019.9
20260503174342 78 177 3.5 10.4 0.00 0.00 0.00 36 1020.5
20260503173352 78 190 2.6 10.4 0.00 0.00 0.00 37 1020.6
20260503172402 77 144 3.5 13.0 0.00 0.00 0.00 37 1020.7
20260503170220 76 212 3.5 11.3 0.00 0.00 0.00 41 1021.0
20260503081528 59 200 0.0 0.0 0.00 0.01 0.00 70 1019.8
20260503080531 59 200 0.0 2.6 0.00 0.01 0.00 69 1019.9
20260503072459 57 165 0.0 0.0 0.00 0.01 0.00 73 1020.1
20260503071447 57 165 0.0 0.0 0.00 0.01 0.00 73 1020.3
20260503070433 57 165 0.0 0.0 0.00 0.01 0.00 72 1020.2
20260503054543 60 161 0.0 0.0 0.00 0.01 0.00 67 1020.4
20260503053604 60 161 0.0 0.0 0.00 0.01 0.00 67 1020.5
20260503052542 62 161 0.0 0.0 0.00 0.01 0.00 66 1020.5
20260503051559 62 161 0.0 1.7 0.00 0.01 0.00 62 1020.5
20260503050533 61 163 0.0 1.7 0.00 0.01 0.00 63 1020.5
20260503045526 61 184 0.0 1.7 0.00 0.01 0.01 63 1020.6
20260503044526 62 184 0.0 1.7 0.00 0.01 0.01 63 1020.5
20260503043529 61 179 0.9 1.7 0.00 0.01 0.01 63 1020.5
20260503042510 62 154 0.0 0.9 0.00 0.01 0.01 63 1020.5